This is the latest recevied weather packets stored in our database for station/object K3HW. If no packets are shown the sender has not sent any weather packets the latest 10 day(s).
| Time | Temp. | Humidity | Pressure | Rain* | Wind** | Luminosity | Snow |
|---|---|---|---|---|---|---|---|
| 1777642355 | 11.11° C | 65% | 1017.5 hPa | 0 mm | - | 58 W/m² | - |
| 1777642052 | 10.56° C | 65% | 1017.6 hPa | 0 mm | - | 54 W/m² | - |
| 1777641748 | 10.56° C | 65% | 1017.5 hPa | 0 mm | - | 40 W/m² | - |
| 1777641443 | 10.56° C | 66% | 1017.6 hPa | 0 mm | - | 39 W/m² | - |
| 1777641139 | 10.56° C | 67% | 1017.4 hPa | 0 mm | - | 38 W/m² | - |
| 1777640835 | 10° C | 68% | 1017.6 hPa | 0 mm | - | 37 W/m² | - |
| 1777640532 | 10° C | 68% | 1017.7 hPa | 0 mm | - | 36 W/m² | - |
| 1777640229 | 10° C | 69% | 1017.5 hPa | 0 mm | - | 35 W/m² | - |
| 1777639925 | 10° C | 69% | 1017.6 hPa | 0 mm | - | 34 W/m² | - |
| 1777639622 | 9.44° C | 69% | 1017.5 hPa | 0 mm | - | 34 W/m² | - |
| 1777639319 | 9.44° C | 70% | 1017.5 hPa | 0 mm | - | 33 W/m² | - |
| 1777639015 | 9.44° C | 71% | 1017.6 hPa | 0 mm | - | 33 W/m² | - |
| 1777638711 | 8.89° C | 72% | 1017.7 hPa | 0 mm | - | 32 W/m² | - |
| 1777638408 | 8.89° C | 71% | 1017.8 hPa | 0 mm | - | 32 W/m² | - |
| 1777638104 | 9.44° C | 71% | 1017.6 hPa | 0 mm | - | 31 W/m² | - |
| 1777637801 | 9.44° C | 72% | 1017.9 hPa | 0 mm | - | 31 W/m² | - |
| 1777637497 | 8.89° C | 73% | 1017.8 hPa | 0 mm | - | 41 W/m² | - |
| 1777637195 | 8.89° C | 74% | 1017.7 hPa | 0 mm | - | 30 W/m² | - |
| 1777636892 | 8.89° C | 74% | 1017.8 hPa | 0 mm | - | 29 W/m² | - |
| 1777636587 | 8.89° C | 75% | 1017.8 hPa | 0 mm | - | 31 W/m² | - |
| 1777636284 | 8.33° C | 76% | 1017.7 hPa | 0 mm | - | 28 W/m² | - |
| 1777635984 | 7.78° C | 78% | 1017.9 hPa | 0 mm | - | 27 W/m² | - |
| 1777635680 | 7.78° C | 78% | 1017.9 hPa | 0 mm | - | 26 W/m² | - |
| 1777635377 | 7.78° C | 80% | 1017.6 hPa | 0 mm | - | 25 W/m² | - |
| 1777635073 | 7.22° C | 81% | 1017.8 hPa | 0 mm | - | 24 W/m² | - |
* Rain latest hour (hover to see other rain measurements)
** Current wind speed in m/s (hover to see current wind gust speed)